Location: Palomar Observatory
(33.3560°N, 116.8630°W)
Time: 03:52:04
(UTC-08:00)

Iridium 57 - Visible Passes

Search period start: 08 December 2016 00:00
Search period end: 18 December 2016 00:00
Orbit: 776 x 779 km, 86.4° (Epoch: 07 December)

Date Brightness Start Highest point End Pass type
(mag) Time Alt. Az. Time Alt. Az. Time Alt. Az.
08 Dec 8.0 05:53:48 10° NNE 05:57:55 23° E 06:02:02 10° SE visible
08 Dec 7.3 18:45:18 10° SSE 18:46:39 18° SSE 18:46:39 18° SSE visible
09 Dec 8.5 05:22:15 10° NE 05:24:05 12° ENE 05:25:56 10° E visible
09 Dec 7.1 18:12:36 10° SE 18:14:15 18° SE 18:14:15 18° SE visible
09 Dec 8.0 19:53:17 10° SW 19:54:47 17° SW 19:54:47 17° SW visible
10 Dec 7.3 17:40:58 10° ESE 17:41:53 12° ESE 17:41:53 12° ESE visible
10 Dec 6.7 19:18:51 10° SSW 19:22:26 39° SW 19:22:26 39° SW visible
11 Dec 7.3 05:53:18 10° NNE 05:58:03 34° E 06:02:45 10° SSE visible
11 Dec 5.4 18:45:07 10° S 18:50:08 81° SE 18:50:08 81° SE visible
12 Dec 8.2 05:20:47 10° NE 05:24:17 18° E 05:27:47 10° ESE visible
12 Dec 5.8 18:12:00 10° SSE 18:16:52 42° E 18:17:53 37° ENE visible
12 Dec 8.0 19:54:19 10° WSW 19:57:43 17° W 19:58:26 17° WNW visible
13 Dec 6.6 17:39:38 10° SE 17:43:31 22° E 17:45:40 17° NE visible
13 Dec 7.0 19:19:17 10° SSW 19:23:57 33° W 19:26:14 23° NW visible
14 Dec 6.5 05:53:01 10° N 05:58:06 51° E 06:03:10 10° SSE visible
14 Dec 7.3 17:09:10 10° E 17:10:18 11° ENE 17:11:26 10° ENE visible
14 Dec 5.8 18:45:09 10° S 18:50:19 66° W 18:54:04 19° N visible
15 Dec 7.7 05:20:04 10° NNE 05:24:26 26° E 05:28:46 10° SE visible
15 Dec 5.4 18:11:40 10° S 18:16:48 63° E 18:21:57 10° N visible
15 Dec 8.5 19:56:17 10° W 19:57:55 11° WNW 19:59:33 10° WNW visible
16 Dec 8.4 04:48:03 10° NE 04:50:37 14° ENE 04:53:11 10° ESE visible
16 Dec 6.2 17:38:50 10° SSE 17:43:23 32° E 17:47:58 10° NNE visible
16 Dec 7.7 19:20:02 10° SW 19:24:04 23° W 19:28:08 10° NNW visible
17 Dec 5.7 05:52:54 10° N 05:58:08 78° E 06:03:20 10° S visible
17 Dec 7.0 17:06:54 10° ESE 17:10:05 17° E 17:13:17 10° NE visible
17 Dec 6.6 18:45:25 10° SSW 18:50:22 43° W 18:55:20 10° NNW visible
